User: anonymous   Login
Location: Unspecified
(0.0000°N, 0.0000°E)
Time: 18:18:14
(UTC+00:00)
Language:

GSAT 9 - Orbit

View from above orbital plane
View from above orbital plane
View from above satellite
View from above satellite

Ground track
Ground track

The orbit data is extracted from the following two-line orbital elements,

1 42695U 17024A   19051.88817031 -.00000309 +00000-0 +00000-0 0  9995
2 42695 000.0976 275.2048 0002626 074.5795 217.7565 01.00273931006523
Epoch (UTC): 20 February 2019 21:18:57
Eccentricity: 0.0002626
inclination: 0.0976°
perigee height: 35774 km
apogee height: 35796 km
right ascension of ascending node: 275.2048°
argument of perigee: 74.5795°
revolutions per day: 1.00273931
mean anomaly at epoch: 217.7565°
orbit number at epoch: 652

The dashed part of the orbit path shows where the satellite is in the earth's shadow,  

DLR